Location: ???????
(55.9142°N, 37.8256°E)
Time: 09:13:50
(UTC+00:00)

Cosmos 2322 Rocket - Visible Passes

Search period start: 24 July 2024 00:00
Search period end: 03 August 2024 00:00
Orbit: 831 x 851 km, 71.0° (Epoch: 23 July)

Date Brightness Start Highest point End Pass type
(mag) Time Alt. Az. Time Alt. Az. Time Alt. Az.
24 Jul 4.7 00:11:14 10° SE 00:13:59 14° E 00:16:44 10° ENE visible
24 Jul 4.7 23:56:16 10° ESE 23:58:46 13° E 00:01:18 10° ENE visible
25 Jul 4.7 23:41:18 10° ESE 23:43:34 12° E 23:45:50 10° ENE visible
26 Jul 4.7 23:26:24 10° ESE 23:28:22 12° E 23:30:20 10° ENE visible
27 Jul 4.7 23:11:34 10° ESE 23:13:09 11° E 23:14:45 10° ENE visible
28 Jul 4.7 22:56:51 10° ESE 22:57:57 11° E 22:59:04 10° E visible
29 Jul 2.9 00:35:13 10° S 00:40:40 50° ESE 00:46:10 10° NE visible
30 Jul 3.0 00:20:01 10° S 00:25:25 48° ESE 00:30:53 10° NE visible
31 Jul 3.0 00:04:48 10° S 00:10:10 46° ESE 00:15:36 10° NE visible
31 Jul 3.0 23:49:35 10° S 23:54:55 44° ESE 00:00:19 10° NE visible
01 Aug 3.1 23:34:47 12° S 23:39:41 42° ESE 23:45:02 10° NE visible
02 Aug 3.1 23:20:01 14° S 23:24:26 41° ESE 23:29:44 10° NE visible
